TimeEDT,TemperatureF,Dew PointF,Humidity,Sea Level PressureIn,VisibilityMPH,Wind Direction,Wind SpeedMPH,Gust SpeedMPH,PrecipitationIn,Events,Conditions,WindDirDegrees,DateUTC
12:52 AM,28.0,23.0,81,29.73,10.0,NNW,3.5,-,N/A,,Overcast,330,2013-03-20 04:52:00
1:52 AM,27.0,21.0,78,29.73,10.0,NW,6.9,-,N/A,,Overcast,320,2013-03-20 05:52:00
2:52 AM,21.0,18.0,88,29.73,10.0,Calm,Calm,-,N/A,,Clear,0,2013-03-20 06:52:00
3:52 AM,19.0,17.1,92,29.73,10.0,Calm,Calm,-,N/A,,Scattered Clouds,0,2013-03-20 07:52:00
4:52 AM,26.1,18.0,71,29.73,10.0,WNW,9.2,-,N/A,,Mostly Cloudy,290,2013-03-20 08:52:00
5:52 AM,24.1,17.1,75,29.75,10.0,West,8.1,-,N/A,,Clear,280,2013-03-20 09:52:00
6:52 AM,25.0,17.1,72,29.76,10.0,Variable,6.9,-,N/A,,Partly Cloudy,0,2013-03-20 10:52:00
7:52 AM,26.1,17.1,69,29.76,10.0,West,11.5,-,N/A,,Clear,280,2013-03-20 11:52:00
8:52 AM,28.0,18.0,66,29.75,10.0,West,15.0,21.9,N/A,,Clear,270,2013-03-20 12:52:00
9:52 AM,30.0,18.0,61,29.76,10.0,WNW,17.3,25.3,N/A,,Scattered Clouds,290,2013-03-20 13:52:00
10:52 AM,30.9,19.0,61,29.76,10.0,West,10.4,17.3,N/A,,Mostly Cloudy,260,2013-03-20 14:52:00
11:52 AM,32.0,18.0,56,29.76,10.0,West,17.3,25.3,N/A,,Overcast,280,2013-03-20 15:52:00
12:52 PM,34.0,18.0,52,29.76,10.0,West,15.0,25.3,N/A,,Overcast,260,2013-03-20 16:52:00
1:52 PM,36.0,17.1,46,29.75,10.0,West,13.8,25.3,N/A,,Mostly Cloudy,270,2013-03-20 17:52:00
2:52 PM,36.0,18.0,48,29.75,10.0,West,15.0,23.0,N/A,,Mostly Cloudy,260,2013-03-20 18:52:00
3:52 PM,36.0,17.1,46,29.74,10.0,West,16.1,25.3,N/A,,Mostly Cloudy,270,2013-03-20 19:52:00
4:52 PM,37.0,15.1,41,29.75,10.0,West,16.1,21.9,N/A,,Partly Cloudy,280,2013-03-20 20:52:00
5:52 PM,36.0,17.1,46,29.76,10.0,WNW,10.4,-,N/A,,Overcast,290,2013-03-20 21:52:00
6:52 PM,35.1,16.0,46,29.78,10.0,WSW,8.1,18.4,N/A,,Clear,250,2013-03-20 22:52:00
7:52 PM,34.0,16.0,48,29.78,10.0,WSW,8.1,-,N/A,,Clear,240,2013-03-20 23:52:00
8:52 PM,32.0,16.0,52,29.79,10.0,WSW,4.6,-,N/A,,Clear,250,2013-03-21 00:52:00
9:52 PM,27.0,17.1,66,29.81,10.0,Calm,Calm,-,N/A,,Clear,0,2013-03-21 01:52:00
10:52 PM,23.0,16.0,74,29.82,10.0,Calm,Calm,-,N/A,,Clear,0,2013-03-21 02:52:00
11:52 PM,18.0,15.1,88,29.82,10.0,NW,4.6,-,N/A,,Clear,310,2013-03-21 03:52:00